Time,TemperatureF,DewpointF,PressureIn,WindDirection,WindDirectionDegrees,WindSpeedMPH,WindSpeedGustMPH,Humidity,HourlyPrecipIn,Conditions,Clouds,dailyrainin,SoftwareType,DateUTC
2013-12-10 00:08:00,51.5,45.0,30.00,ESE,110,2.0,6.0,78,0.00,,,0.00,weatherlink.com 1.10,2013-12-10 00:08:00,
2013-12-10 00:23:00,51.4,45.0,30.00,East,94,1.0,4.0,78,0.00,,,0.00,weatherlink.com 1.10,2013-12-10 00:23:00,
2013-12-10 00:38:00,51.4,45.0,30.00,SSW,200,1.0,3.0,79,0.00,,,0.00,weatherlink.com 1.10,2013-12-10 00:38:00,
2013-12-10 00:53:00,52.3,45.0,30.00,SE,142,2.0,5.0,77,0.00,,,0.00,weatherlink.com 1.10,2013-12-10 00:53:00,
2013-12-10 01:08:00,53.5,46.0,29.99,East,91,5.0,13.0,75,0.00,,,0.00,weatherlink.com 1.10,2013-12-10 01:08:00,
2013-12-10 01:23:00,53.5,46.0,29.99,West,280,0.0,6.0,75,0.00,,,0.00,weatherlink.com 1.10,2013-12-10 01:23:00,
2013-12-10 01:38:00,53.5,46.0,29.99,SW,217,2.0,6.0,76,0.00,,,0.00,weatherlink.com 1.10,2013-12-10 01:38:00,
2013-12-10 01:53:00,53.7,46.0,29.99,ESE,102,4.0,11.0,74,0.00,,,0.00,weatherlink.com 1.10,2013-12-10 01:53:00,
2013-12-10 02:08:00,53.9,45.0,29.99,WSW,248,3.0,12.0,72,0.00,,,0.00,weatherlink.com 1.10,2013-12-10 02:08:00,
2013-12-10 02:23:00,54.0,45.0,29.99,SSW,211,4.0,12.0,72,0.00,,,0.00,weatherlink.com 1.10,2013-12-10 02:23:00,
2013-12-10 02:38:00,54.1,46.0,29.99,WSW,255,4.0,13.0,73,0.00,,,0.00,weatherlink.com 1.10,2013-12-10 02:38:00,
2013-12-10 02:54:00,54.1,46.0,29.99,WSW,256,3.0,23.0,74,0.00,,,0.00,weatherlink.com 1.10,2013-12-10 02:54:00,
2013-12-10 03:09:00,54.1,46.0,29.99,WSW,250,4.0,12.0,74,0.00,,,0.00,weatherlink.com 1.10,2013-12-10 03:09:00,
2013-12-10 03:24:00,54.2,46.0,29.98,West,273,6.0,14.0,75,0.00,,,0.00,weatherlink.com 1.10,2013-12-10 03:24:00,
2013-12-10 03:39:00,54.1,46.0,29.98,SW,228,11.0,13.0,75,0.00,,,0.00,weatherlink.com 1.10,2013-12-10 03:39:00,
2013-12-10 03:54:00,54.1,46.0,29.98,SSE,163,13.0,16.0,75,0.00,,,0.00,weatherlink.com 1.10,2013-12-10 03:54:00,
2013-12-10 04:09:00,54.3,47.0,29.98,West,266,5.0,11.0,75,0.00,,,0.00,weatherlink.com 1.10,2013-12-10 04:09:00,
2013-12-10 04:24:00,54.5,46.0,29.98,West,276,2.0,11.0,74,0.00,,,0.00,weatherlink.com 1.10,2013-12-10 04:24:00,
2013-12-10 04:39:00,54.4,47.0,29.98,South,188,2.0,10.0,75,0.00,,,0.00,weatherlink.com 1.10,2013-12-10 04:39:00,
2013-12-10 04:54:00,54.1,46.0,29.98,West,259,7.0,11.0,75,0.00,,,0.00,weatherlink.com 1.10,2013-12-10 04:54:00,
2013-12-10 05:09:00,54.5,46.0,29.98,West,259,2.0,15.0,74,0.00,,,0.00,weatherlink.com 1.10,2013-12-10 05:09:00,
2013-12-10 05:24:00,54.6,46.0,29.98,WSW,255,2.0,10.0,73,0.00,,,0.00,weatherlink.com 1.10,2013-12-10 05:24:00,
2013-12-10 05:39:00,54.7,46.0,29.98,SSE,152,2.0,13.0,73,0.00,,,0.00,weatherlink.com 1.10,2013-12-10 05:39:00,
2013-12-10 05:54:00,54.7,47.0,29.98,WSW,250,6.0,14.0,74,0.00,,,0.00,weatherlink.com 1.10,2013-12-10 05:54:00,
2013-12-10 06:09:00,54.6,46.0,29.98,West,281,4.0,11.0,73,0.00,,,0.00,weatherlink.com 1.10,2013-12-10 06:09:00,
2013-12-10 06:24:00,54.7,45.0,29.98,SSW,193,4.0,17.0,71,0.00,,,0.00,weatherlink.com 1.10,2013-12-10 06:24:00,
2013-12-10 06:39:00,54.6,46.0,29.97,West,277,2.0,15.0,72,0.00,,,0.00,weatherlink.com 1.10,2013-12-10 06:39:00,
2013-12-10 06:54:00,54.7,45.0,29.98,SW,217,9.0,26.0,71,0.02,,,0.02,weatherlink.com 1.10,2013-12-10 06:54:00,
2013-12-10 07:09:00,54.6,45.0,29.98,WSW,238,8.0,16.0,71,0.02,,,0.02,weatherlink.com 1.10,2013-12-10 07:09:00,
2013-12-10 07:24:00,54.6,45.0,29.98,West,271,7.0,17.0,70,0.02,,,0.02,weatherlink.com 1.10,2013-12-10 07:24:00,
2013-12-10 07:39:00,54.6,44.0,29.98,West,260,9.0,18.0,68,0.02,,,0.02,weatherlink.com 1.10,2013-12-10 07:39:00,
2013-12-10 07:54:00,54.3,44.0,29.99,WNW,290,9.0,23.0,68,0.01,,,0.02,weatherlink.com 1.10,2013-12-10 07:54:00,
2013-12-10 08:09:00,54.0,44.0,29.99,SW,236,8.0,17.0,69,0.01,,,0.02,weatherlink.com 1.10,2013-12-10 08:09:00,
2013-12-10 08:24:00,54.0,44.0,30.00,SSE,162,12.0,16.0,68,0.01,,,0.02,weatherlink.com 1.10,2013-12-10 08:24:00,
2013-12-10 08:39:00,54.0,44.0,30.00,SW,217,12.0,18.0,68,0.00,,,0.02,weatherlink.com 1.10,2013-12-10 08:39:00,
2013-12-10 08:54:00,54.0,44.0,30.00,West,262,7.0,18.0,68,0.00,,,0.02,weatherlink.com 1.10,2013-12-10 08:54:00,
2013-12-10 09:09:00,54.0,44.0,30.01,SSW,211,7.0,14.0,68,0.00,,,0.02,weatherlink.com 1.10,2013-12-10 09:09:00,
2013-12-10 09:24:00,54.1,43.0,30.01,NE,39,4.0,15.0,67,0.00,,,0.02,weatherlink.com 1.10,2013-12-10 09:24:00,
2013-12-10 09:39:00,54.2,43.0,30.02,West,262,15.0,25.0,66,0.01,,,0.03,weatherlink.com 1.10,2013-12-10 09:39:00,
2013-12-10 09:54:00,53.9,43.0,30.02,WSW,243,7.0,18.0,67,0.01,,,0.03,weatherlink.com 1.10,2013-12-10 09:54:00,
2013-12-10 10:10:00,53.8,43.0,30.01,West,273,2.0,17.0,67,0.01,,,0.03,weatherlink.com 1.10,2013-12-10 10:10:00,
2013-12-10 10:25:00,54.1,43.0,30.01,SW,218,7.0,18.0,66,0.01,,,0.03,weatherlink.com 1.10,2013-12-10 10:25:00,
2013-12-10 10:40:00,54.2,43.0,30.02,SW,225,7.0,18.0,65,0.00,,,0.03,weatherlink.com 1.10,2013-12-10 10:40:00,
2013-12-10 10:55:00,54.5,43.0,30.01,WSW,253,7.0,14.0,65,0.00,,,0.03,weatherlink.com 1.10,2013-12-10 10:55:00,
2013-12-10 11:10:00,55.1,43.0,30.02,WSW,242,5.0,17.0,63,0.00,,,0.03,weatherlink.com 1.10,2013-12-10 11:10:00,
2013-12-10 11:25:00,55.7,43.0,30.02,West,280,4.0,15.0,63,0.00,,,0.03,weatherlink.com 1.10,2013-12-10 11:25:00,
2013-12-10 11:40:00,55.8,43.0,30.01,WNW,291,4.0,11.0,63,0.00,,,0.03,weatherlink.com 1.10,2013-12-10 11:40:00,
2013-12-10 11:55:00,55.8,44.0,30.01,SSE,152,2.0,12.0,64,0.00,,,0.03,weatherlink.com 1.10,2013-12-10 11:55:00,
2013-12-10 12:10:00,55.7,44.0,30.01,ESE,121,13.0,13.0,66,0.00,,,0.03,weatherlink.com 1.10,2013-12-10 12:10:00,
2013-12-10 12:25:00,55.7,44.0,30.01,NNE,15,2.0,8.0,66,0.00,,,0.03,weatherlink.com 1.10,2013-12-10 12:25:00,
2013-12-10 12:40:00,55.7,46.0,30.01,WSW,253,4.0,11.0,69,0.00,,,0.03,weatherlink.com 1.10,2013-12-10 12:40:00,
2013-12-10 12:55:00,55.4,46.0,30.00,West,278,1.0,8.0,71,0.00,,,0.03,weatherlink.com 1.10,2013-12-10 12:55:00,
2013-12-10 13:10:00,55.4,46.0,30.00,SE,127,0.0,4.0,72,0.00,,,0.03,weatherlink.com 1.10,2013-12-10 13:10:00,
2013-12-10 13:25:00,55.8,47.0,30.00,South,173,2.0,12.0,72,0.00,,,0.03,weatherlink.com 1.10,2013-12-10 13:25:00,
2013-12-10 13:40:00,55.8,47.0,30.00,ENE,70,4.0,6.0,73,0.00,,,0.03,weatherlink.com 1.10,2013-12-10 13:40:00,
2013-12-10 13:55:00,55.7,48.0,30.00,West,264,3.0,7.0,75,0.00,,,0.03,weatherlink.com 1.10,2013-12-10 13:55:00,
2013-12-10 14:10:00,56.3,48.0,30.00,East,100,3.0,3.0,75,0.00,,,0.03,weatherlink.com 1.10,2013-12-10 14:10:00,
2013-12-10 14:25:00,58.0,50.0,30.00,SE,146,0.0,6.0,75,0.00,,,0.03,weatherlink.com 1.10,2013-12-10 14:25:00,
2013-12-10 14:40:00,57.9,50.0,30.00,ESE,118,2.0,8.0,74,0.00,,,0.03,weatherlink.com 1.10,2013-12-10 14:40:00,
2013-12-10 14:55:00,57.0,49.0,30.00,East,84,2.0,7.0,75,0.00,,,0.03,weatherlink.com 1.10,2013-12-10 14:55:00,
2013-12-10 15:10:00,56.5,49.0,30.00,SSW,207,1.0,9.0,76,0.00,,,0.03,weatherlink.com 1.10,2013-12-10 15:10:00,
2013-12-10 15:25:00,56.4,49.0,30.00,SE,138,2.0,11.0,76,0.00,,,0.03,weatherlink.com 1.10,2013-12-10 15:25:00,
2013-12-10 15:40:00,56.3,49.0,30.00,East,80,3.0,5.0,76,0.00,,,0.03,weatherlink.com 1.10,2013-12-10 15:40:00,
2013-12-10 15:55:00,56.5,49.0,30.00,ESE,109,1.0,8.0,77,0.00,,,0.03,weatherlink.com 1.10,2013-12-10 15:55:00,
2013-12-10 16:10:00,56.3,50.0,30.00,East,94,3.0,6.0,78,0.00,,,0.03,weatherlink.com 1.10,2013-12-10 16:10:00,
2013-12-10 16:25:00,56.2,50.0,30.00,SE,146,0.0,5.0,79,0.00,,,0.03,weatherlink.com 1.10,2013-12-10 16:25:00,
2013-12-10 16:40:00,56.2,50.0,30.00,ESE,123,1.0,9.0,79,0.00,,,0.03,weatherlink.com 1.10,2013-12-10 16:40:00,
2013-12-10 16:55:00,56.5,50.0,30.01,SE,139,3.0,7.0,80,0.00,,,0.03,weatherlink.com 1.10,2013-12-10 16:55:00,
2013-12-10 17:10:00,56.5,51.0,30.02,WNW,284,0.0,5.0,81,0.00,,,0.03,weatherlink.com 1.10,2013-12-10 17:10:00,
2013-12-10 17:25:00,56.4,51.0,30.01,SW,219,1.0,10.0,81,0.00,,,0.03,weatherlink.com 1.10,2013-12-10 17:25:00,
2013-12-10 17:40:00,56.1,51.0,30.02,NNW,327,2.0,9.0,82,0.00,,,0.03,weatherlink.com 1.10,2013-12-10 17:40:00,
2013-12-10 17:55:00,55.9,51.0,30.02,WSW,250,5.0,12.0,82,0.00,,,0.03,weatherlink.com 1.10,2013-12-10 17:55:00,
2013-12-10 18:10:00,55.8,50.0,30.02,SW,226,7.0,14.0,82,0.00,,,0.03,weatherlink.com 1.10,2013-12-10 18:10:00,
2013-12-10 18:25:00,55.7,51.0,30.02,WSW,251,4.0,13.0,83,0.00,,,0.03,weatherlink.com 1.10,2013-12-10 18:25:00,
2013-12-10 18:40:00,55.6,51.0,30.02,SW,228,11.0,15.0,84,0.00,,,0.03,weatherlink.com 1.10,2013-12-10 18:40:00,
2013-12-10 18:55:00,55.4,51.0,30.02,West,267,4.0,14.0,84,0.00,,,0.03,weatherlink.com 1.10,2013-12-10 18:55:00,
2013-12-10 19:10:00,55.3,51.0,30.02,West,274,4.0,13.0,85,0.00,,,0.03,weatherlink.com 1.10,2013-12-10 19:10:00,
2013-12-10 19:25:00,55.7,51.0,30.02,South,183,3.0,16.0,84,0.00,,,0.03,weatherlink.com 1.10,2013-12-10 19:25:00,
2013-12-10 19:40:00,55.8,51.0,30.02,WSW,239,7.0,15.0,84,0.00,,,0.03,weatherlink.com 1.10,2013-12-10 19:40:00,
2013-12-10 19:55:00,55.8,51.0,30.02,SE,134,0.0,18.0,83,0.00,,,0.03,weatherlink.com 1.10,2013-12-10 19:55:00,
2013-12-10 20:10:00,55.7,51.0,30.02,ESE,111,5.0,7.0,84,0.00,,,0.03,weatherlink.com 1.10,2013-12-10 20:10:00,
2013-12-10 20:25:00,55.0,50.0,30.03,East,86,5.0,6.0,84,0.00,,,0.03,weatherlink.com 1.10,2013-12-10 20:25:00,
2013-12-10 20:55:00,55.8,51.0,30.03,WSW,255,0.0,7.0,84,0.00,,,0.03,weatherlink.com 1.10,2013-12-10 20:55:00,
2013-12-10 21:10:00,55.9,51.0,30.03,West,270,1.0,9.0,83,0.00,,,0.03,weatherlink.com 1.10,2013-12-10 21:10:00,
2013-12-10 21:25:00,56.0,51.0,30.04,SW,235,6.0,7.0,83,0.00,,,0.03,weatherlink.com 1.10,2013-12-10 21:25:00,
2013-12-10 21:40:00,55.9,51.0,30.04,West,260,4.0,12.0,83,0.00,,,0.03,weatherlink.com 1.10,2013-12-10 21:40:00,
2013-12-10 21:55:00,55.9,51.0,30.04,SSE,161,5.0,14.0,83,0.00,,,0.03,weatherlink.com 1.10,2013-12-10 21:55:00,
2013-12-10 22:10:00,55.7,51.0,30.04,NE,51,3.0,9.0,83,0.00,,,0.03,weatherlink.com 1.10,2013-12-10 22:10:00,
2013-12-10 22:25:00,55.6,51.0,30.04,ESE,105,8.0,9.0,83,0.00,,,0.03,weatherlink.com 1.10,2013-12-10 22:25:00,
2013-12-10 22:40:00,55.6,51.0,30.04,SE,132,8.0,14.0,83,0.00,,,0.03,weatherlink.com 1.10,2013-12-10 22:40:00,
2013-12-10 22:56:00,55.7,50.0,30.05,ESE,120,0.0,8.0,82,0.00,,,0.03,weatherlink.com 1.10,2013-12-10 22:56:00,
2013-12-10 23:11:00,55.6,50.0,30.05,ESE,120,2.0,7.0,82,0.00,,,0.03,weatherlink.com 1.10,2013-12-10 23:11:00,
2013-12-10 23:26:00,55.5,50.0,30.05,SSE,166,2.0,10.0,82,0.00,,,0.03,weatherlink.com 1.10,2013-12-10 23:26:00,
2013-12-10 23:41:00,55.3,50.0,30.05,South,174,6.0,12.0,82,0.00,,,0.03,weatherlink.com 1.10,2013-12-10 23:41:00,
2013-12-10 23:56:00,55.4,50.0,30.05,SE,133,2.0,7.0,82,0.00,,,0.03,weatherlink.com 1.10,2013-12-10 23:56:00,